Skip Page Navigation
NASA JPL Caltech
NASA Logo - Jet Propulsion Laboratory + View the NASA Portal
+ Near-Earth Object (NEO) Program
Search JPL
JPL Home Earth Solar System Stars & Galaxies Technology
JPL Solar System Dynamics
BODIES ORBITS EPHEMERIDES TOOLS PHYSICAL DATA DISCOVERY FAQ SITE MAP
JPL Small-Body Database Browser
Search: [ help ]  
65716 Ohkinohama (1993 BZ2)
Classification: Main-belt Asteroid          SPK-ID: 2065716
Ephemeris | Orbit Diagram | Orbital Elements | Physical Parameters | Discovery Circumstances ]

[ hide orbit diagram ]
Orbit Diagram
Note: Make sure you have Java enabled on your browser to see the applet. This applet is provided as a 3D orbit visualization tool. The applet was implemented using 2-body methods, and hence should not be used for determining accurate long-term trajectories (over several years or decades) or planetary encounter circumstances. For accurate long-term ephemerides, please instead use our Horizons system.
Orbit Viewer

Additional Notes: the orbits shown in the applet are color coded. The planets are white lines, and the asteroid/comet is a blue line. The bright white line indicates the portion of the orbit that is above the ecliptic plane, and the darker portion is below the ecliptic plane. Likewise for the asteroid/comet orbit, the light blue indicates the portion above the ecliptic plane, and the dark blue the portion below the ecliptic plane.

Orbit Viewer applet originally written and kindly provided by Osamu Ajiki (AstroArts), and further modified by Ron Baalke (JPL).


Orbital Elements at Epoch 2456400.5 (2013-Apr-18.0) TDB
Reference: JPL 1 (heliocentric ecliptic J2000)
 Element Value Uncertainty (1-sigma)   Units 
e .1902319893768223 1.6845e-07  
a 2.466577859043381 3.6406e-08 AU
q 1.997355845964736 3.9952e-07 AU
i 9.697013138221829 1.0366e-05 deg
node 307.1955912481628 0.00011399 deg
peri 115.4434276809974 0.00013531 deg
M 126.8120055060762 5.4293e-05 deg
tp 2455902.076465997794
(2011-Dec-06.57646600)
0.00021882 JED
period 1414.948620398536
3.87
3.1326e-05
8.577e-08
d
yr
n .254426199517126 5.6329e-09 deg/d
Q 2.935799872122027 4.3332e-08 AU
  Orbit Determination Parameters
   # obs. used (total)      306  
   data-arc span      7382 days (20.21 yr)  
   first obs. used      1993-01-25  
   last obs. used      2013-04-12  
   planetary ephem.      DE405  
   SB-pert. ephem.      SB405-CPV-2  
   condition code      0  
   fit RMS      .62762  
   data source      ORB  
   producer      Otto Matic  
   solution date      2013-Apr-29 16:53:40  

Additional Information
 Earth MOID = 1.03218 AU 
 T_jup = 3.442 
[ show covariance matrix ]

Ephemeris | Orbit Diagram | Orbital Elements | Physical Parameters | Discovery Circumstances ]

Physical Parameter Table
Parameter Symbol Value Units Sigma Reference Notes
absolute magnitude H 14.999 mag .56535 1 autocmod 2.5c

65716 Ohkinohama           Discovered 1993 Jan. 25 by T. Seki at Geisei.
Ohkinohama is a 1.5-kilometer-long beach adjacent to the eastern part of Ashizurimisaki promontory at the southern end of Shikoku Island.
NOTE: some special characters may not display properly (any characters within {} are an attempt to place the proper accent above a character)
Reference: 20091202/MPCPages.arcLast Updated: 2010-04-12

Alternate Designations
 1993 BZ2 = 1999 RM144 
Ephemeris | Orbit Diagram | Orbital Elements | Physical Parameters | Discovery Circumstances ]
ABOUT SSD CREDITS/AWARDS PRIVACY/COPYRIGHT GLOSSARY LINKS
FirstGov 2013-May-23 00:41 UT
(server date/time)  
NASA Home Page
Site Manager:   Donald K. Yeomans
Webmaster  Alan B. Chamberlin